Location: Unspecified
(50.0000°N, 15.0000°E)
Time: 03:46:14
(UTC+01:00)

ISS - Pass Details

Date: 01 December 2021
Orbit: 413 x 422 km, 51.6° (Epoch: 22 January)

Event Time Altitude Azimuth Distance (km) Brightness Sun altitude
Rises 18:36:20 0° 287° (WNW) 2,384 1.2 -24.1°
Reaches altitude 10° 18:38:28 10° 285° (WNW) 1,515 0.0 -24.4°
Enters shadow 18:40:39 36° 275° (W) 683 -2.2 -24.7°
